Skip Page Navigation
NASA JPL Caltech
NASA Logo - Jet Propulsion Laboratory + View the NASA Portal
+ Center for Near-Earth Object Studies
JPL Home Earth Solar System Stars & Galaxies Technology
JPL Solar System Dynamics
BODIES ORBITS EPHEMERIDES TOOLS PHYSICAL DATA DISCOVERY FAQ SITE MAP
JPL Small-Body Database Browser
Search: [ help ]  
10457 Suminov (1978 QE2)
Classification: Main-belt Asteroid          SPK-ID: 2010457
Ephemeris | Orbit Diagram | Orbital Elements | Mission Design | Physical Parameters | Discovery Circumstances ]

[ show orbit diagram ]
Orbital Elements at Epoch 2459396.5 (2021-Jul-01.0) TDB
Reference: JPL 35 (heliocentric ecliptic J2000)
 Element Value Uncertainty (1-sigma)   Units 
e .2286683943016017 3.4833e-08  
a 2.383553063437478 7.9369e-09 au
q 1.838509811688566 8.2862e-08 au
i 2.381653263891138 4.0493e-06 deg
node 13.29069226668263 8.2396e-05 deg
peri 329.0646733210481 8.2748e-05 deg
M 229.370605507246 1.0103e-05 deg
tp 2459884.223943943032
(2022-Oct-31.72394394)
3.9382e-05 TDB
period 1344.112636373209
3.68
6.7136e-06
1.838e-08
d
yr
n .2678346964815244 1.3378e-09 deg/d
Q 2.92859631518639 9.7518e-09 au
  Orbit Determination Parameters
   # obs. used (total)      1844  
   data-arc span      15601 days (42.71 yr)  
   first obs. used      1978-08-31  
   last obs. used      2021-05-18  
   planetary ephem.      DE441  
   SB-pert. ephem.      SB441-N16  
   condition code      0  
   norm. resid. RMS      .51007  
   source      ORB  
   producer      Otto Matic  
   solution date      2021-Jul-08 16:21:36  

Additional Information
 Earth MOID = .830239 au 
 Jupiter MOID = 2.47896 au 
 T_jup = 3.500 
[ show covariance matrix ]

Ephemeris | Orbit Diagram | Orbital Elements | Mission Design | Physical Parameters | Discovery Circumstances ]

Physical Parameter Table
Parameter Symbol Value Units Sigma Reference Notes
absolute magnitude H 14.57   n/a MPCxxxxx  
diameter diameter 3.010 km 0.490 urn:nasa:pds:neowise_diameters_albedos::2.0[mainbelt] (http://adsabs.harvard.edu/abs/2016AJ....152...63N)  
geometric albedo albedo 0.317   0.121 urn:nasa:pds:neowise_diameters_albedos::2.0[mainbelt] (http://adsabs.harvard.edu/abs/2016AJ....152...63N)  

10457 Suminov           Discovered 1978 Aug. 31 by N. S. Chernykh at the Crimean Astrophysical Observatory.
Vyacheslav Mikhailovich Suminov (b. 1932) is a professor and head of the faculty at the Moscow Aviation-Technological Institute, founder of the Russian scientific school on laser technology, a member of the Russian Academy of Technological Sciences and a State Prize laureate.
NOTE: some special characters may not display properly (any characters within {} are an attempt to place the proper accent above a character)
Reference: 20020624/MPCPages.arcLast Updated: 2003-10-02

Alternate Designations
 1978 QE2 = 1989 RG4 = 1992 HK6 = 1993 VE3 
Ephemeris | Orbit Diagram | Orbital Elements | Mission Design | Physical Parameters | Discovery Circumstances ]
ABOUT SSD CREDITS/AWARDS PRIVACY/COPYRIGHT GLOSSARY LINKS
FirstGov 2021-Jul-23 20:42 UT
(server date/time)  
NASA Home Page
Site Manager:   Ryan S. Park
Webmaster  Alan B. Chamberlin